This is the latest recevied weather packets stored in our database for station/object KC9DRE. If no packets are shown the sender has not sent any weather packets the latest 10 day(s).
| Time | Temp. | Humidity | Pressure | Rain* | Wind** | Luminosity | Snow |
|---|---|---|---|---|---|---|---|
| 1777537215 | 3.33° C | 94% | 1015.6 hPa | 0 mm | - | 0 W/m² | - |
| 1777536911 | 3.89° C | 93% | 1015.8 hPa | 0 mm | - | 0 W/m² | - |
| 1777536609 | 3.89° C | 93% | 1015.6 hPa | 0 mm | - | 0 W/m² | - |
| 1777535394 | 3.89° C | 91% | 1015.4 hPa | 0 mm | - | 0 W/m² | - |
| 1777535092 | 3.89° C | 91% | 1015.6 hPa | 0 mm | - | 0 W/m² | - |
| 1777534789 | 4.44° C | 90% | 1015.7 hPa | 0 mm | - | 0 W/m² | - |
| 1777534485 | 4.44° C | 90% | 1015.6 hPa | 0 mm | - | 0 W/m² | - |
| 1777534183 | 5° C | 90% | 1015.7 hPa | 0 mm | - | 0 W/m² | - |
| 1777533880 | 5° C | 89% | 1015.8 hPa | 0 mm | - | 0 W/m² | - |
| 1777533577 | 5° C | 88% | 1015.6 hPa | 0 mm | - | 0 W/m² | - |
| 1777533273 | 5.56° C | 88% | 1015.8 hPa | 0 mm | - | 0 W/m² | - |
| 1777532969 | 5.56° C | 87% | 1016.1 hPa | 0 mm | - | 0 W/m² | - |
| 1777532667 | 5.56° C | 86% | 1015.9 hPa | 0 mm | - | 0 W/m² | - |
| 1777532364 | 6.11° C | 85% | 1016.1 hPa | 0 mm | - | 0 W/m² | - |
| 1777532060 | 6.11° C | 84% | 1016.1 hPa | 0 mm | - | 0 W/m² | - |
| 1777531756 | 6.67° C | 84% | 1015.8 hPa | 0 mm | - | 0 W/m² | - |
| 1777531452 | 6.67° C | 83% | 1016.2 hPa | 0 mm | - | 0 W/m² | - |
| 1777531150 | 7.22° C | 82% | 1016.1 hPa | 0 mm | - | 0 W/m² | - |
| 1777530848 | 7.22° C | 80% | 1016.1 hPa | 0 mm | - | 0 W/m² | - |
| 1777530545 | 7.78° C | 80% | 1016.3 hPa | 0 mm | - | 0 W/m² | - |
| 1777530241 | 7.78° C | 79% | 1015.9 hPa | 0 mm | - | 0 W/m² | - |
| 1777529938 | 7.78° C | 78% | 1016.3 hPa | 0 mm | - | 0 W/m² | - |
| 1777529635 | 7.78° C | 77% | 1016.2 hPa | 0 mm | - | 0 W/m² | - |
| 1777529332 | 8.33° C | 78% | 1016.4 hPa | 0 mm | - | 0 W/m² | - |
| 1777529028 | 8.33° C | 77% | 1016.3 hPa | 0 mm | - | 0 W/m² | - |
* Rain latest hour (hover to see other rain measurements)
** Current wind speed in m/s (hover to see current wind gust speed)